Ruston, LA

10:58 PM CST on February 24, 2017 (GMT -0600)
Ruston Regional

Weather History for KRSN - April, 2013

Change the Weather History Date:

Thursday, April 11, 2013

  Actual Average Record
Temperature  
Mean Temperature 50 °F -  
Max Temperature 58 °F 74 °F 90 °F (1930)
Min Temperature 41 °F 49 °F 29 °F (1989)
Degree Days  
Heating Degree Days 16    
Moisture  
Dew Point 45 °F    
Average Humidity 92    
Maximum Humidity 100    
Minimum Humidity 53    
Precipitation  
Precipitation 1.65 in - - ()
Sea Level Pressure  
Sea Level Pressure 29.85 in    
Wind  
Wind Speed 5 mph (NW)    
Max Wind Speed 13 mph    
Max Gust Speed 23 mph    
Visibility 8 miles    
Events Rain , Thunderstorm    
Averages and records for this station are not official NWS values.
T = Trace of Precipitation, MM = Missing Value Source: NWS Daily Summary

Daily Weather History Graph

Daily Weather History Graph

Search for Another Location

Airport or City:

Trip Planner

Search our weather history database for the weather conditions in past years. The results will help you decide how hot, cold, wet, or windy it might be!

Date:

Astronomy

Apr. 11, 2013 Rise Set
Actual Time 6:45 AM CDT 7:37 PM CDT
Civil Twilight 6:20 AM CDT 8:02 PM CDT
Nautical Twilight 5:50 AM CDT 8:32 PM CDT
Astronomical Twilight 5:20 AM CDT 9:02 PM CDT
Moon 7:22 AM CDT (4/11) 9:06 PM CDT (4/11)
Length of Visible Light 13h 42m
Length of Day
12h 52m
New Moon, 2% of the Moon is Illuminated
Apr 11
New Moon
Apr 18
First Quarter
Apr 25
Full
May 2
Last Quarter
May 9
New

Hourly Weather History & Observations

Time (CDT) Temp. Windchill Dew Point Humidity Pressure Visibility Wind Dir Wind Speed Gust Speed Precip Events Conditions
12:15 AM 48.0 °F - 48.0 °F 100% 29.87 in 10.0 mi West 4.6 mph - 0.02 in Rain , Thunderstorm Rain
12:35 AM 48.2 °F - 48.2 °F 100% 29.86 in 5.0 mi NNW 5.8 mph - 0.09 in Rain Heavy Rain
12:55 AM 47.8 °F - 47.8 °F 100% 29.87 in 7.0 mi NNW 8.1 mph - 0.16 in Rain , Thunderstorm Thunderstorms and Rain
1:15 AM 47.5 °F - 47.5 °F 100% 29.85 in 10.0 mi NW 9.2 mph - 0.02 in Rain Rain
1:35 AM 47.5 °F - 47.5 °F 100% 29.86 in 10.0 mi NW 6.9 mph - 0.07 in Rain , Thunderstorm Rain
1:55 AM 47.3 °F - 47.3 °F 100% 29.86 in 7.0 mi NNW 5.8 mph - 0.13 in Rain , Thunderstorm Thunderstorms and Rain
2:15 AM 46.9 °F - 46.9 °F 100% 29.87 in 5.0 mi Calm Calm - 0.08 in Rain , Thunderstorm Heavy Thunderstorms and Rain
2:35 AM 46.8 °F - 46.8 °F 100% 29.86 in 7.0 mi NW 10.4 mph - 0.16 in Rain , Thunderstorm Heavy Thunderstorms and Rain
2:55 AM 46.4 °F 41.1 °F 46.4 °F 100% 29.78 in 7.0 mi NNW 11.5 mph 23.0 mph 0.22 in Rain Rain
3:15 AM 46.4 °F 44.3 °F 46.4 °F 100% 29.84 in 7.0 mi SE 4.6 mph - 0.04 in Rain , Thunderstorm Rain
3:35 AM 46.4 °F 42.4 °F 46.4 °F 100% 29.81 in 7.0 mi NW 8.1 mph - 0.09 in Rain , Thunderstorm Rain
3:55 AM 46.4 °F 45.2 °F 46.4 °F 100% 29.82 in 7.0 mi West 3.5 mph - 0.13 in Rain , Thunderstorm Rain
4:15 AM 46.4 °F 44.3 °F 46.4 °F 100% 29.85 in 1.5 mi NNW 4.6 mph - 0.19 in Rain , Thunderstorm Light Thunderstorms and Rain
4:35 AM 46.4 °F 40.7 °F 46.4 °F 100% 29.84 in 2.5 mi NW 12.7 mph - 0.32 in Rain , Thunderstorm Heavy Thunderstorms and Rain
4:55 AM 46.0 °F 42.5 °F 46.0 °F 100% 29.84 in 7.0 mi NNW 6.9 mph - 0.39 in Rain Rain
5:15 AM 45.9 °F 41.7 °F 45.9 °F 100% 29.86 in 7.0 mi NW 8.1 mph - 0.05 in Rain , Thunderstorm Heavy Thunderstorms and Rain
5:35 AM 45.7 °F 43.4 °F 45.7 °F 100% 29.87 in 5.0 mi NW 4.6 mph - 0.15 in Rain , Thunderstorm Rain
5:55 AM 45.5 °F 39.9 °F 45.5 °F 100% 29.81 in 5.0 mi North 11.5 mph - 0.25 in Rain Heavy Rain
6:15 AM 45.3 °F 41.1 °F 45.3 °F 100% 29.78 in 7.0 mi NNW 8.1 mph - 0.05 in Rain Light Rain
6:35 AM 45.5 °F 42.5 °F 45.5 °F 100% 29.78 in 10.0 mi NNW 5.8 mph - 0.06 in Rain Rain
6:55 AM 45.5 °F 40.8 °F 45.5 °F 100% 29.86 in 7.0 mi West 9.2 mph - 0.12 in Rain Heavy Rain
7:15 AM 45.5 °F 43.2 °F 45.5 °F 100% 29.86 in 5.0 mi WNW 4.6 mph - 0.05 in Rain Heavy Rain
7:35 AM 45.0 °F 41.2 °F 45.0 °F 100% 29.90 in 3.0 mi West 6.9 mph - 0.12 in Rain Light Rain
7:55 AM 44.8 °F 39.9 °F 44.8 °F 100% 29.86 in 10.0 mi NW 9.2 mph - 0.13 in Rain Light Rain
8:15 AM 44.6 °F 43.1 °F 44.6 °F 100% 29.86 in 10.0 mi WNW 3.5 mph - N/A Rain Rain
8:35 AM 44.6 °F - 44.6 °F 100% 29.89 in 10.0 mi Calm Calm - 0.01 in Rain Light Rain
8:55 AM 44.4 °F 42.0 °F 44.4 °F 100% 29.90 in 7.0 mi WNW 4.6 mph - 0.05 in Rain Rain
9:15 AM 44.6 °F 41.4 °F 44.6 °F 100% 29.85 in 7.0 mi NNW 5.8 mph 11.5 mph 0.03 in Rain , Thunderstorm Rain
9:35 AM 44.6 °F 38.8 °F 44.6 °F 100% 29.86 in 10.0 mi North 11.5 mph 18.4 mph 0.03 in   Overcast
9:55 AM 44.6 °F 41.4 °F 44.6 °F 100% 29.94 in 10.0 mi WNW 5.8 mph - 0.03 in Rain Rain
10:15 AM 44.6 °F 41.4 °F 44.6 °F 100% 29.90 in 7.0 mi WNW 5.8 mph - 0.02 in Rain Light Rain
10:35 AM 44.6 °F 43.1 °F 44.6 °F 100% 29.89 in 10.0 mi NW 3.5 mph - 0.02 in Rain Rain
10:55 AM 44.6 °F 41.4 °F 44.6 °F 100% 29.86 in 10.0 mi NNW 5.8 mph - 0.03 in Rain Light Rain
11:15 AM 44.4 °F - 44.4 °F 100% 29.88 in 10.0 mi Calm Calm - N/A Rain Light Rain
11:35 AM 44.8 °F - 44.8 °F 100% 29.84 in 10.0 mi Calm Calm - 0.01 in   Overcast
12:15 PM 46.0 °F - 46.0 °F 100% 29.87 in 10.0 mi Calm Calm - N/A   Overcast
12:35 PM 46.0 °F 43.1 °F 46.0 °F 100% 29.92 in 10.0 mi West 5.8 mph - N/A   Light Drizzle
12:55 PM 46.4 °F 41.5 °F 46.4 °F 100% 29.79 in 10.0 mi North 10.4 mph - N/A   Overcast
1:15 PM 46.6 °F - 46.6 °F 100% 29.88 in 10.0 mi WNW 5.8 mph - N/A   Overcast
1:35 PM 46.8 °F - 45.9 °F 97% 29.88 in 10.0 mi NW 6.9 mph - N/A   Overcast
1:55 PM 48.6 °F - 47.3 °F 95% 29.84 in 10.0 mi WNW 9.2 mph - N/A   Overcast
2:15 PM 47.3 °F - 46.2 °F 96% 29.83 in 10.0 mi WNW 4.6 mph - N/A   Overcast
2:35 PM 48.6 °F - 44.6 °F 86% 29.83 in 10.0 mi NW 10.4 mph - N/A   Overcast
2:55 PM 50.2 °F - 43.2 °F 77% 29.83 in 10.0 mi NW 9.2 mph - N/A   Mostly Cloudy
3:15 PM 52.2 °F - 43.9 °F 73% 29.83 in 10.0 mi West 5.8 mph - N/A   Scattered Clouds
3:35 PM 52.3 °F - 43.3 °F 71% 29.80 in 10.0 mi NW 5.8 mph - N/A   Scattered Clouds
3:55 PM 53.6 °F - 42.8 °F 67% 29.81 in 10.0 mi WNW 5.8 mph - N/A   Clear
4:15 PM 55.8 °F - 43.9 °F 64% 29.82 in 10.0 mi NW 8.1 mph - N/A   Clear
4:35 PM 56.1 °F - 43.0 °F 61% 29.81 in 10.0 mi NW 5.8 mph - N/A   Clear
4:55 PM 57.0 °F - 44.6 °F 63% 29.82 in 10.0 mi NW 4.6 mph - N/A   Clear
5:15 PM 57.7 °F - 43.3 °F 59% 29.81 in 10.0 mi WNW 5.8 mph - N/A   Clear
5:35 PM 58.5 °F - 42.8 °F 56% 29.82 in 10.0 mi NNW 5.8 mph - N/A   Clear
5:55 PM 58.8 °F - 41.9 °F 53% 29.82 in 10.0 mi WNW 3.5 mph - N/A   Clear
6:15 PM 58.5 °F - 41.2 °F 53% 29.83 in 10.0 mi Calm Calm - N/A   Clear
6:35 PM 58.1 °F - 42.3 °F 56% 29.84 in 10.0 mi WNW 3.5 mph - N/A   Clear
6:55 PM 57.4 °F - 41.5 °F 56% 29.83 in 10.0 mi Calm Calm - N/A   Clear
7:15 PM 54.0 °F - 48.2 °F 81% 29.84 in 10.0 mi Calm Calm - N/A   Clear
7:35 PM 50.9 °F - 49.5 °F 95% 29.83 in 10.0 mi Calm Calm - N/A   Clear
7:55 PM 48.6 °F - 48.6 °F 100% 29.84 in 10.0 mi Calm Calm - N/A   Clear
8:15 PM 47.8 °F - 47.8 °F 100% 29.85 in 10.0 mi South 3.5 mph - N/A   Clear
8:35 PM 46.6 °F - 46.6 °F 100% 29.86 in 10.0 mi Calm Calm - N/A   Clear
8:55 PM 45.7 °F - 45.7 °F 100% 29.86 in 7.0 mi Calm Calm - N/A   Clear
9:15 PM 45.1 °F - 45.1 °F 100% 29.86 in 7.0 mi Calm Calm - N/A   Clear
9:35 PM 44.6 °F - 44.6 °F 100% 29.86 in 7.0 mi Calm Calm - N/A   Clear
9:55 PM 43.9 °F - 43.9 °F 100% 29.87 in 7.0 mi Calm Calm - N/A   Clear
10:15 PM 43.3 °F - 43.3 °F 100% 29.88 in 7.0 mi Calm Calm - N/A   Clear
10:35 PM 42.8 °F - 42.8 °F 100% 29.88 in 7.0 mi Calm Calm - N/A   Clear
10:55 PM 42.4 °F - 42.4 °F 100% 29.89 in 7.0 mi Calm Calm - N/A   Clear
11:15 PM 43.5 °F - 43.5 °F 100% 29.90 in 10.0 mi Calm Calm - N/A   Clear
11:35 PM 41.9 °F - 41.9 °F 100% 29.90 in 7.0 mi Calm Calm - N/A   Clear
11:55 PM 41.4 °F - 41.4 °F 100% 29.91 in 7.0 mi Calm Calm - N/A   Clear